GW2584 Weather Reports


time (UTC)temp
F
wind
direction
speed
knots
gust
knots
rain 1hr
in
rain 24hr
in
rain mn
in
humidity
%
barometer
mb
20260906031618 73 221 0.9 5.2 0.00 0.00 0.00 32 1023.4
20260906030113 73 224 0.9 9.6 0.00 0.00 0.00 33 1023.1
20260906024607 72 251 5.2 10.4 0.00 0.00 0.00 34 1023.0
20260906023132 72 239 2.6 9.6 0.00 0.00 0.00 34 1022.9
20260906021608 73 217 2.6 9.6 0.00 0.00 0.00 35 1022.9
20260906020107 74 234 0.9 3.5 0.00 0.00 0.00 32 1022.8
20260906014629 74 205 4.3 9.6 0.00 0.00 0.00 31 1023.3
20260906013103 74 245 3.5 9.6 0.00 0.00 0.00 33 1023.0
20260906011608 74 199 3.5 7.8 0.00 0.00 0.00 32 1022.8
20260906010111 74 192 3.5 7.8 0.00 0.00 0.00 32 1022.8
20260906004614 75 214 2.6 5.2 0.00 0.00 0.00 32 1023.1
20260906003109 76 0 0.0 4.3 0.00 0.00 0.00 31 1023.1
20260906001602 76 195 1.7 6.1 0.00 0.00 0.00 31 1023.0
20260906000111 77 211 1.7 7.0 0.00 0.00 0.00 30 1023.0
20260905234605 79 233 1.7 8.7 0.00 0.00 0.00 28 1022.8
20260905233106 78 73 1.7 5.2 0.00 0.00 0.00 26 1022.9
20260905231607 79 204 0.0 4.3 0.00 0.00 0.00 26 1022.7
20260905230110 80 160 1.7 5.2 0.00 0.00 0.00 24 1022.4
20260905224610 80 335 0.0 2.6 0.00 0.00 0.00 23 1022.5
20260905223107 80 280 0.0 3.5 0.00 0.00 0.00 23 1022.5
20260905221608 81 48 0.9 4.3 0.00 0.00 0.00 23 1022.5
20260905220123 81 1 0.9 3.5 0.00 0.00 0.00 22 1022.4
20260905214606 82 330 2.6 7.8 0.00 0.00 0.00 22 1022.6
20260905213108 83 17 2.6 7.8 0.00 0.00 0.00 22 1022.8
20260905211609 83 44 0.0 6.1 0.00 0.00 0.00 21 1022.8
20260905210107 83 25 1.7 10.4 0.00 0.00 0.00 22 1023.0
20260905204606 82 82 3.5 10.4 0.00 0.00 0.00 22 1023.1
20260905203105 81 155 2.6 7.0 0.00 0.00 0.00 23 1023.4
20260905201607 80 53 3.5 7.8 0.00 0.00 0.00 23 1023.6
20260905200101 81 288 3.5 10.4 0.00 0.00 0.00 22 1023.6
20260905194607 82 21 2.6 11.3 0.00 0.00 0.00 22 1023.7
20260905193104 80 28 1.7 11.3 0.00 0.00 0.00 24 1023.8
20260905191605 82 4 3.5 11.3 0.00 0.00 0.00 24 1023.8
20260905190114 79 70 5.2 9.6 0.00 0.00 0.00 25 1023.9
20260905184607 82 50 3.5 9.6 0.00 0.00 0.00 24 1023.9
20260905183126 81 4 4.3 12.2 0.00 0.00 0.00 26 1023.8
20260905181606 81 6 4.3 11.3 0.00 0.00 0.00 26 1024.0
20260905180103 82 68 3.5 7.0 0.00 0.00 0.00 26 1024.2
20260905174607 82 51 4.3 9.6 0.00 0.00 0.00 27 1024.1
20260905173105 80 49 4.3 10.4 0.00 0.00 0.00 28 1024.2
20260905171605 79 1 2.6 9.6 0.00 0.00 0.00 29 1024.2
20260905170104 82 13 1.7 8.7 0.00 0.00 0.00 25 1023.7
20260905164608 82 30 3.5 8.7 0.00 0.00 0.00 24 1023.6
20260905163105 81 20 1.7 11.3 0.00 0.00 0.00 23 1023.6
20260905161605 84 36 2.6 6.1 0.00 0.00 0.00 20 1023.5
20260905160123 83 257 2.6 8.7 0.00 0.00 0.00 20 1023.6
20260905154607 83 22 0.9 4.3 0.00 0.00 0.00 21 1023.6
20260905153112 83 316 0.0 4.3 0.00 0.00 0.00 20 1023.5
20260905151610 81 259 0.9 3.5 0.00 0.00 0.00 22 1023.5
20260905150104 81 0 0.0 2.6 0.00 0.00 0.00 23 1023.5
20260905144606 79 191 0.0 3.5 0.00 0.00 0.00 24 1023.7
20260905143111 79 0 0.0 1.7 0.00 0.00 0.00 24 1023.7
20260905141605 78 41 0.0 1.7 0.00 0.00 0.00 24 1023.7
20260905140110 77 268 0.0 6.1 0.00 0.00 0.00 25 1023.5
20260905134607 76 110 0.9 4.3 0.00 0.00 0.00 26 1023.2
20260905133108 74 213 1.7 8.7 0.00 0.00 0.00 27 1023.1
20260905131616 73 243 3.5 7.8 0.00 0.00 0.00 28 1023.0
20260905130123 71 236 0.0 2.6 0.00 0.00 0.00 29 1022.8
20260905124608 69 272 1.7 8.7 0.00 0.00 0.00 30 1022.7
20260905123107 69 208 2.6 6.1 0.00 0.00 0.00 29 1022.5
20260905121604 70 215 0.9 5.2 0.00 0.00 0.00 29 1022.5
20260905120114 69 245 2.6 8.7 0.00 0.00 0.00 30 1022.5
20260905114605 68 221 2.6 6.1 0.00 0.00 0.00 32 1022.5
20260905113105 68 243 0.0 2.6 0.00 0.00 0.00 34 1022.6
20260905111613 68 210 0.0 3.5 0.00 0.00 0.00 32 1022.6
20260905110105 67 0 0.9 5.2 0.00 0.00 0.00 35 1022.5
20260905104607 67 0 0.0 7.0 0.00 0.00 0.00 34 1022.5
20260905103105 68 0 0.0 4.3 0.00 0.00 0.00 35 1022.4
20260905101605 67 0 0.0 2.6 0.00 0.00 0.00 36 1022.2
20260905100106 67 261 0.0 2.6 0.00 0.00 0.00 36 1022.2
20260905094608 66 246 0.0 2.6 0.00 0.00 0.00 38 1022.1
20260905093105 66 250 0.9 5.2 0.00 0.00 0.00 38 1021.9
20260905091608 66 0 0.0 1.7 0.00 0.00 0.00 39 1021.9
20260905090105 66 0 0.9 3.5 0.00 0.00 0.00 39 1021.9
20260905084619 66 233 0.0 2.6 0.00 0.00 0.00 39 1021.9
20260905083104 65 0 0.0 3.5 0.00 0.00 0.00 39 1021.9
20260905081604 66 0 0.0 3.5 0.00 0.00 0.00 37 1022.0
20260905080106 66 208 0.9 3.5 0.00 0.00 0.00 38 1022.1
20260905074606 66 255 0.0 1.7 0.00 0.00 0.00 38 1022.0
20260905073108 66 0 0.0 2.6 0.00 0.00 0.00 37 1022.0
20260905071608 67 0 0.0 2.6 0.00 0.00 0.00 37 1022.1
20260905070107 67 0 0.0 1.7 0.00 0.00 0.00 36 1022.1
20260905064602 68 0 0.0 3.5 0.00 0.00 0.00 35 1022.0
20260905063104 70 253 0.0 5.2 0.00 0.00 0.00 33 1022.0
20260905061611 70 226 1.7 6.1 0.00 0.00 0.00 32 1022.0
20260905060107 70 224 0.9 4.3 0.00 0.00 0.00 32 1021.9
20260905054604 70 0 0.0 4.3 0.00 0.00 0.00 32 1021.9
20260905053142 70 224 0.9 3.5 0.00 0.00 0.00 32 1022.1
20260905051604 70 223 0.9 4.3 0.00 0.00 0.00 32 1022.1
20260905050109 70 212 0.9 2.6 0.00 0.00 0.00 32 1022.1
20260905044605 70 231 0.0 5.2 0.00 0.00 0.00 32 1022.0
20260905043106 71 0 0.0 2.6 0.00 0.00 0.00 31 1022.2
20260905041611 71 0 0.0 0.9 0.00 0.00 0.00 31 1022.1
20260905040105 71 0 0.0 0.9 0.00 0.00 0.00 31 1022.4
20260905034605 72 0 0.0 0.9 0.00 0.00 0.00 31 1022.5
20260905033106 72 0 0.0 2.6 0.00 0.00 0.00 31 1022.6